GAOFEN 11

Last updated on Mon Sep 14 2020 05:43:41 GMT+0000 (Coordinated Universal Time)

1 43585U 18063A 20257.82925922 .00000332 00000-0 16813-4 0 9999 2 43585 97.3791 336.0325 0015579 267.5009 209.6249 15.23593496118695

Satellite not in orbit

GAOFEN 11